Skip Page Navigation
NASA JPL Caltech
NASA Logo - Jet Propulsion Laboratory + View the NASA Portal
+ Center for Near-Earth Object Studies
JPL Home Earth Solar System Stars & Galaxies Technology
JPL Solar System Dynamics
BODIES ORBITS EPHEMERIDES TOOLS PHYSICAL DATA DISCOVERY FAQ SITE MAP
JPL Small-Body Database Browser
Search: [ help ]  
100447 (1996 RB5)
Classification: Main-belt Asteroid          SPK-ID: 2100447
Ephemeris | Orbit Diagram | Orbital Elements | Mission Design | Physical Parameters | Discovery Circumstances ]

[ show orbit diagram ]
Orbital Elements at Epoch 2459200.5 (2020-Dec-17.0) TDB
Reference: JPL 21 (heliocentric ecliptic J2000)
 Element Value Uncertainty (1-sigma)   Units 
e .2002132774486463 4.542e-08  
a 2.22585309388869 7.3376e-09 au
q 1.780207750842026 1.0068e-07 au
i 4.021858619330088 5.0867e-06 deg
node 215.1568532972052 5.8237e-05 deg
peri 124.5900232573507 5.937e-05 deg
M 121.3094676476256 1.26e-05 deg
tp 2458791.771078503683
(2019-Nov-04.27107850)
4.1456e-05 TDB
period 1212.950766267369
3.32
5.9978e-06
1.642e-08
d
yr
n .2967968775087494 1.4676e-09 deg/d
Q 2.671498436935353 8.8066e-09 au
  Orbit Determination Parameters
   # obs. used (total)      657  
   data-arc span      10497 days (28.74 yr)  
   first obs. used      1992-04-24  
   last obs. used      2021-01-19  
   planetary ephem.      DE431  
   SB-pert. ephem.      SB431-N16  
   condition code      0  
   norm. resid. RMS      .55902  
   source      ORB  
   producer      Otto Matic  
   solution date      2021-Feb-24 08:25:18  

Additional Information
 Earth MOID = .773732 au 
 Jupiter MOID = 2.73466 au 
 T_jup = 3.616 
[ show covariance matrix ]

Ephemeris | Orbit Diagram | Orbital Elements | Mission Design | Physical Parameters | Discovery Circumstances ]

Physical Parameter Table
Parameter Symbol Value Units Sigma Reference Notes
absolute magnitude H 16.4   n/a MPO400918  

100447 (1996 RB5)          Discovered 1996-Sep-14 by Laurie, S. P. at Church Stretton
Reference: 20051019/Numbers.arcLast Updated: 2005-10-26

Alternate Designations
 1996 RB5 = 2002 GE142 
Ephemeris | Orbit Diagram | Orbital Elements | Mission Design | Physical Parameters | Discovery Circumstances ]
ABOUT SSD CREDITS/AWARDS PRIVACY/COPYRIGHT GLOSSARY LINKS
FirstGov 2021-Mar-03 03:30 UT
(server date/time)  
NASA Home Page
Site Manager:   Ryan S. Park
Webmaster  Alan B. Chamberlin